| time (UTC) | temp C | wind direction | speed KPH | gust KPH | rain 1hr cm | rain 24hr cm | rain mn cm | humidity % | barometer mb |
| 20260503175548 | 15 | 149 | 6.4 | 19.3 | 0.00 | 0.00 | 0.00 | 73 | 1013.2 |
| 20260503175050 | 15 | 252 | 4.8 | 19.3 | 0.00 | 0.00 | 0.00 | 73 | 1013.2 |
| 20260503174553 | 15 | 162 | 8.0 | 19.3 | 0.00 | 0.00 | 0.00 | 73 | 1013.0 |
| 20260503174048 | 15 | 217 | 6.4 | 16.1 | 0.00 | 0.00 | 0.00 | 73 | 1013.0 |
| 20260503173545 | 15 | 131 | 3.2 | 16.1 | 0.00 | 0.00 | 0.00 | 74 | 1012.9 |
| 20260503173113 | 15 | 139 | 8.0 | 22.5 | 0.00 | 0.00 | 0.00 | 73 | 1012.9 |
| 20260503172550 | 15 | 181 | 8.0 | 22.5 | 0.00 | 0.00 | 0.00 | 73 | 1012.8 |
| 20260503172044 | 15 | 266 | 6.4 | 17.7 | 0.00 | 0.00 | 0.00 | 73 | 1012.9 |
| 20260503171554 | 15 | 178 | 6.4 | 16.1 | 0.00 | 0.00 | 0.00 | 73 | 1012.9 |
| 20260503171045 | 15 | 228 | 6.4 | 16.1 | 0.00 | 0.00 | 0.00 | 73 | 1012.7 |
| 20260503170549 | 15 | 113 | 4.8 | 14.5 | 0.00 | 0.00 | 0.00 | 74 | 1012.7 |
| 20260503150548 | 12 | 138 | 4.8 | 12.9 | 0.00 | 0.00 | 0.00 | 80 | 1012.5 |
| 20260503131048 | 12 | 158 | 1.6 | 12.9 | 0.00 | 0.00 | 0.00 | 81 | 1011.1 |
| 20260503130545 | 11 | 249 | 3.2 | 12.9 | 0.00 | 0.00 | 0.00 | 81 | 1011.1 |
| 20260503120114 | 12 | 248 | 1.6 | 11.3 | 0.00 | 0.00 | 0.00 | 80 | 1011.1 |
| 20260503110544 | 12 | 152 | 4.8 | 12.9 | 0.00 | 0.00 | 0.00 | 81 | 1011.1 |
| 20260503081556 | 12 | 242 | 6.4 | 12.9 | 0.00 | 0.00 | 0.00 | 82 | 1011.6 |
| 20260503081044 | 12 | 231 | 1.6 | 12.9 | 0.00 | 0.00 | 0.00 | 82 | 1011.6 |
| 20260503080547 | 12 | 223 | 4.8 | 16.1 | 0.00 | 0.00 | 0.00 | 82 | 1011.6 |
| 20260503072545 | 12 | 184 | 3.2 | 14.5 | 0.00 | 0.00 | 0.00 | 82 | 1011.8 |
| 20260503072045 | 12 | 155 | 4.8 | 12.9 | 0.00 | 0.00 | 0.00 | 82 | 1011.9 |
| 20260503071557 | 12 | 262 | 4.8 | 12.9 | 0.00 | 0.00 | 0.00 | 82 | 1011.9 |
| 20260503071045 | 12 | 240 | 4.8 | 11.3 | 0.00 | 0.00 | 0.00 | 82 | 1011.9 |
| 20260503070547 | 12 | 175 | 3.2 | 11.3 | 0.00 | 0.00 | 0.00 | 82 | 1012.0 |
| 20260503070104 | 12 | 250 | 3.2 | 12.9 | 0.00 | 0.00 | 0.00 | 82 | 1012.0 |
| 20260503055045 | 12 | 158 | 3.2 | 11.3 | 0.00 | 0.00 | 0.00 | 82 | 1012.5 |
| 20260503054553 | 12 | 280 | 4.8 | 11.3 | 0.00 | 0.00 | 0.00 | 81 | 1012.5 |
| 20260503054045 | 12 | 135 | 3.2 | 12.9 | 0.00 | 0.00 | 0.00 | 81 | 1012.5 |
| 20260503053545 | 12 | 146 | 3.2 | 14.5 | 0.00 | 0.00 | 0.00 | 81 | 1012.6 |
| 20260503053055 | 12 | 156 | 3.2 | 14.5 | 0.00 | 0.00 | 0.00 | 81 | 1012.7 |
| 20260503052544 | 12 | 172 | 6.4 | 14.5 | 0.00 | 0.00 | 0.00 | 81 | 1012.5 |
| 20260503052045 | 12 | 106 | 4.8 | 11.3 | 0.00 | 0.00 | 0.00 | 81 | 1012.4 |
| 20260503051600 | 12 | 208 | 3.2 | 12.9 | 0.00 | 0.00 | 0.00 | 81 | 1012.5 |
| 20260503051044 | 12 | 236 | 3.2 | 12.9 | 0.00 | 0.00 | 0.00 | 81 | 1012.6 |
| 20260503050545 | 12 | 131 | 4.8 | 16.1 | 0.00 | 0.00 | 0.00 | 81 | 1012.5 |
| 20260503050052 | 12 | 141 | 1.6 | 16.1 | 0.00 | 0.00 | 0.00 | 81 | 1012.5 |
| 20260503045548 | 12 | 153 | 4.8 | 16.1 | 0.00 | 0.00 | 0.00 | 81 | 1012.4 |
| 20260503045047 | 12 | 259 | 1.6 | 11.3 | 0.00 | 0.00 | 0.00 | 81 | 1012.5 |
| 20260503044555 | 12 | 141 | 1.6 | 8.0 | 0.00 | 0.00 | 0.00 | 81 | 1012.4 |
| 20260503044046 | 12 | 134 | 3.2 | 8.0 | 0.00 | 0.00 | 0.00 | 81 | 1012.1 |
| 20260503043545 | 12 | 197 | 3.2 | 8.0 | 0.00 | 0.00 | 0.00 | 81 | 1012.2 |
| 20260503043054 | 12 | 136 | 3.2 | 9.7 | 0.00 | 0.00 | 0.00 | 82 | 1012.1 |
| 20260503042547 | 12 | 243 | 3.2 | 9.7 | 0.00 | 0.00 | 0.00 | 81 | 1012.1 |
| 20260503042044 | 12 | 245 | 1.6 | 14.5 | 0.00 | 0.00 | 0.00 | 81 | 1011.9 |
| 20260503041605 | 12 | 213 | 3.2 | 14.5 | 0.00 | 0.00 | 0.00 | 81 | 1011.9 |
| 20260503041045 | 12 | 281 | 3.2 | 14.5 | 0.00 | 0.00 | 0.00 | 81 | 1012.1 |
| 20260503040545 | 12 | 245 | 4.8 | 12.9 | 0.00 | 0.00 | 0.00 | 81 | 1012.0 |
| 20260503040100 | 12 | 234 | 4.8 | 12.9 | 0.00 | 0.00 | 0.00 | 81 | 1012.0 |
| 20260503035545 | 12 | 224 | 3.2 | 12.9 | 0.00 | 0.00 | 0.00 | 81 | 1012.0 |
| 20260503035051 | 12 | 243 | 3.2 | 14.5 | 0.00 | 0.00 | 0.00 | 81 | 1012.0 |
| 20260503034604 | 12 | 254 | 4.8 | 14.5 | 0.00 | 0.00 | 0.00 | 81 | 1012.0 |
| 20260503034044 | 12 | 183 | 3.2 | 14.5 | 0.00 | 0.00 | 0.00 | 81 | 1011.9 |
| 20260503033544 | 12 | 241 | 6.4 | 14.5 | 0.00 | 0.00 | 0.00 | 81 | 1011.9 |
| 20260503033056 | 12 | 247 | 1.6 | 11.3 | 0.00 | 0.00 | 0.00 | 81 | 1011.7 |
| 20260503032544 | 12 | 245 | 3.2 | 11.3 | 0.00 | 0.00 | 0.00 | 81 | 1011.7 |
| 20260503032046 | 12 | 194 | 4.8 | 12.9 | 0.00 | 0.00 | 0.00 | 81 | 1011.7 |
| 20260503031552 | 12 | 202 | 4.8 | 16.1 | 0.00 | 0.00 | 0.00 | 80 | 1011.5 |
| 20260503031046 | 12 | 243 | 4.8 | 16.1 | 0.00 | 0.00 | 0.00 | 80 | 1011.3 |
| 20260503030546 | 12 | 210 | 4.8 | 12.9 | 0.00 | 0.00 | 0.00 | 80 | 1011.3 |
| 20260503030056 | 12 | 210 | 4.8 | 11.3 | 0.00 | 0.00 | 0.00 | 80 | 1011.2 |
| 20260503025545 | 13 | 238 | 4.8 | 11.3 | 0.00 | 0.00 | 0.00 | 79 | 1011.2 |
| 20260503025045 | 13 | 223 | 4.8 | 14.5 | 0.00 | 0.00 | 0.00 | 79 | 1011.2 |
| 20260503024554 | 13 | 243 | 4.8 | 19.3 | 0.00 | 0.00 | 0.00 | 78 | 1011.3 |
| 20260503024045 | 13 | 222 | 4.8 | 19.3 | 0.00 | 0.00 | 0.00 | 78 | 1011.2 |
| 20260503023544 | 13 | 271 | 6.4 | 19.3 | 0.00 | 0.00 | 0.00 | 78 | 1011.2 |
| 20260503023056 | 13 | 171 | 8.0 | 17.7 | 0.00 | 0.00 | 0.00 | 77 | 1011.2 |
| 20260503022544 | 13 | 210 | 6.4 | 17.7 | 0.00 | 0.00 | 0.00 | 76 | 1011.2 |
| 20260503022044 | 13 | 230 | 6.4 | 14.5 | 0.00 | 0.00 | 0.00 | 76 | 1011.1 |
| 20260503021548 | 13 | 262 | 8.0 | 17.7 | 0.00 | 0.00 | 0.00 | 75 | 1011.1 |
| 20260503021045 | 13 | 134 | 6.4 | 20.9 | 0.00 | 0.00 | 0.00 | 75 | 1011.3 |
| 20260503020545 | 13 | 244 | 8.0 | 20.9 | 0.00 | 0.00 | 0.00 | 75 | 1011.2 |
| 20260503020056 | 14 | 153 | 11.3 | 20.9 | 0.00 | 0.00 | 0.00 | 73 | 1011.2 |
| 20260503015545 | 14 | 136 | 3.2 | 17.7 | 0.00 | 0.00 | 0.00 | 73 | 1011.1 |
| 20260503015045 | 14 | 235 | 8.0 | 17.7 | 0.00 | 0.00 | 0.00 | 73 | 1011.1 |
| 20260503014615 | 14 | 160 | 6.4 | 19.3 | 0.00 | 0.00 | 0.00 | 73 | 1011.2 |
| 20260503014045 | 15 | 194 | 4.8 | 22.5 | 0.00 | 0.00 | 0.00 | 73 | 1011.2 |
| 20260503013545 | 15 | 247 | 9.7 | 22.5 | 0.00 | 0.00 | 0.00 | 72 | 1011.2 |
| 20260503013049 | 15 | 244 | 9.7 | 24.1 | 0.00 | 0.00 | 0.00 | 72 | 1011.2 |
| 20260503012545 | 15 | 252 | 4.8 | 24.1 | 0.00 | 0.00 | 0.00 | 72 | 1011.1 |
| 20260503012044 | 15 | 266 | 9.7 | 24.1 | 0.00 | 0.00 | 0.00 | 71 | 1011.3 |
| 20260503011556 | 15 | 214 | 8.0 | 17.7 | 0.00 | 0.00 | 0.00 | 71 | 1011.3 |
| 20260503011045 | 15 | 271 | 4.8 | 20.9 | 0.00 | 0.00 | 0.00 | 71 | 1011.2 |
| 20260503010545 | 15 | 249 | 6.4 | 20.9 | 0.00 | 0.00 | 0.00 | 71 | 1011.1 |
| 20260503010049 | 16 | 264 | 6.4 | 19.3 | 0.00 | 0.00 | 0.00 | 70 | 1011.1 |
| 20260503005546 | 16 | 225 | 8.0 | 20.9 | 0.00 | 0.00 | 0.00 | 70 | 1011.1 |
| 20260503005048 | 16 | 236 | 6.4 | 24.1 | 0.00 | 0.00 | 0.00 | 70 | 1011.2 |
| 20260503004548 | 16 | 248 | 9.7 | 24.1 | 0.00 | 0.00 | 0.00 | 69 | 1011.2 |
| 20260503004045 | 16 | 211 | 8.0 | 19.3 | 0.00 | 0.00 | 0.00 | 69 | 1011.3 |
| 20260503003545 | 16 | 231 | 9.7 | 19.3 | 0.00 | 0.00 | 0.00 | 69 | 1011.3 |
| 20260503003050 | 16 | 267 | 11.3 | 17.7 | 0.00 | 0.00 | 0.00 | 68 | 1011.1 |
| 20260503002545 | 17 | 250 | 8.0 | 17.7 | 0.00 | 0.00 | 0.00 | 68 | 1011.2 |
| 20260503002045 | 17 | 231 | 8.0 | 17.7 | 0.00 | 0.00 | 0.00 | 67 | 1011.2 |
| 20260503001555 | 17 | 207 | 8.0 | 17.7 | 0.00 | 0.00 | 0.00 | 66 | 1011.2 |
| 20260503001046 | 17 | 247 | 4.8 | 14.5 | 0.00 | 0.00 | 0.00 | 66 | 1011.2 |
| 20260503000545 | 17 | 100 | 6.4 | 24.1 | 0.00 | 0.00 | 0.00 | 67 | 1011.3 |
| 20260503000053 | 17 | 136 | 9.7 | 24.1 | 0.00 | 0.00 | 0.00 | 67 | 1011.4 |
| 20260502235545 | 17 | 257 | 11.3 | 24.1 | 0.00 | 0.00 | 0.00 | 66 | 1011.4 |
| 20260502235045 | 17 | 245 | 8.0 | 22.5 | 0.00 | 0.00 | 0.00 | 66 | 1011.4 |
| 20260502234555 | 17 | 256 | 9.7 | 22.5 | 0.00 | 0.00 | 0.00 | 66 | 1011.4 |
| 20260502234047 | 17 | 105 | 9.7 | 19.3 | 0.00 | 0.00 | 0.00 | 66 | 1011.4 |
| 20260502233547 | 18 | 243 | 6.4 | 17.7 | 0.00 | 0.00 | 0.00 | 65 | 1011.4 |
| 20260502233059 | 18 | 229 | 6.4 | 24.1 | 0.00 | 0.00 | 0.00 | 65 | 1011.6 |
| 20260502232542 | 18 | 167 | 9.7 | 24.1 | 0.00 | 0.00 | 0.00 | 66 | 1011.6 |
| 20260502232046 | 18 | 244 | 4.8 | 24.1 | 0.00 | 0.00 | 0.00 | 64 | 1011.5 |
| 20260502231605 | 18 | 192 | 9.7 | 24.1 | 0.00 | 0.00 | 0.00 | 65 | 1011.6 |
| 20260502231047 | 18 | 193 | 11.3 | 22.5 | 0.00 | 0.00 | 0.00 | 65 | 1011.6 |
| 20260502230548 | 18 | 122 | 6.4 | 19.3 | 0.00 | 0.00 | 0.00 | 62 | 1011.7 |
| 20260502230054 | 18 | 150 | 8.0 | 19.3 | 0.00 | 0.00 | 0.00 | 63 | 1011.8 |
| 20260502225546 | 18 | 180 | 8.0 | 20.9 | 0.00 | 0.00 | 0.00 | 63 | 1011.9 |
| 20260502225047 | 18 | 249 | 8.0 | 20.9 | 0.00 | 0.00 | 0.00 | 62 | 1011.9 |
| 20260502224551 | 18 | 91 | 8.0 | 29.0 | 0.00 | 0.00 | 0.00 | 62 | 1011.9 |
| 20260502224048 | 18 | 153 | 9.7 | 29.0 | 0.00 | 0.00 | 0.00 | 62 | 1012.0 |
| 20260502223547 | 18 | 125 | 9.7 | 29.0 | 0.00 | 0.00 | 0.00 | 63 | 1012.1 |
| 20260502223054 | 18 | 138 | 8.0 | 29.0 | 0.00 | 0.00 | 0.00 | 63 | 1012.2 |
| 20260502222546 | 18 | 305 | 8.0 | 29.0 | 0.00 | 0.00 | 0.00 | 64 | 1012.2 |
| 20260502222051 | 18 | 192 | 11.3 | 19.3 | 0.00 | 0.00 | 0.00 | 64 | 1012.2 |
| 20260502221553 | 18 | 153 | 8.0 | 22.5 | 0.00 | 0.00 | 0.00 | 64 | 1012.5 |
| 20260502221048 | 18 | 255 | 9.7 | 22.5 | 0.00 | 0.00 | 0.00 | 66 | 1012.3 |
| 20260502220547 | 18 | 233 | 8.0 | 24.1 | 0.00 | 0.00 | 0.00 | 65 | 1012.4 |
| 20260502215546 | 18 | 240 | 11.3 | 24.1 | 0.00 | 0.00 | 0.00 | 67 | 1012.3 |
| 20260502215046 | 18 | 248 | 11.3 | 24.1 | 0.00 | 0.00 | 0.00 | 66 | 1012.5 |
| 20260502214551 | 18 | 139 | 8.0 | 19.3 | 0.00 | 0.00 | 0.00 | 66 | 1012.5 |
| 20260502214047 | 18 | 134 | 8.0 | 24.1 | 0.00 | 0.00 | 0.00 | 64 | 1012.6 |
| 20260502213547 | 18 | 233 | 9.7 | 24.1 | 0.00 | 0.00 | 0.00 | 65 | 1012.5 |
| 20260502213054 | 18 | 136 | 8.0 | 25.7 | 0.00 | 0.00 | 0.00 | 66 | 1012.5 |
| 20260502212547 | 18 | 79 | 9.7 | 25.7 | 0.00 | 0.00 | 0.00 | 66 | 1012.6 |
| 20260502212047 | 18 | 215 | 6.4 | 20.9 | 0.00 | 0.00 | 0.00 | 66 | 1012.6 |
| 20260502211554 | 18 | 139 | 9.7 | 20.9 | 0.00 | 0.00 | 0.00 | 67 | 1012.8 |
| 20260502211051 | 18 | 223 | 9.7 | 19.3 | 0.00 | 0.00 | 0.00 | 67 | 1012.7 |
| 20260502210547 | 18 | 226 | 8.0 | 19.3 | 0.00 | 0.00 | 0.00 | 67 | 1012.8 |
| 20260502210104 | 18 | 241 | 4.8 | 19.3 | 0.00 | 0.00 | 0.00 | 66 | 1012.9 |
| 20260502205546 | 18 | 220 | 8.0 | 20.9 | 0.00 | 0.00 | 0.00 | 67 | 1013.0 |
| 20260502205050 | 18 | 221 | 8.0 | 20.9 | 0.00 | 0.00 | 0.00 | 67 | 1013.0 |
| 20260502204549 | 18 | 276 | 6.4 | 22.5 | 0.00 | 0.00 | 0.00 | 68 | 1013.2 |
| 20260502204044 | 17 | 252 | 8.0 | 22.5 | 0.00 | 0.00 | 0.00 | 69 | 1013.2 |
| 20260502203544 | 18 | 184 | 4.8 | 19.3 | 0.00 | 0.00 | 0.00 | 69 | 1013.4 |
| 20260502203054 | 17 | 204 | 6.4 | 20.9 | 0.00 | 0.00 | 0.00 | 69 | 1013.4 |
| 20260502202543 | 17 | 199 | 8.0 | 22.5 | 0.00 | 0.00 | 0.00 | 70 | 1013.5 |
| 20260502202043 | 17 | 229 | 11.3 | 22.5 | 0.00 | 0.00 | 0.00 | 69 | 1013.6 |
| 20260502201601 | 17 | 214 | 11.3 | 22.5 | 0.00 | 0.00 | 0.00 | 70 | 1013.6 |
| 20260502201044 | 17 | 151 | 11.3 | 22.5 | 0.00 | 0.00 | 0.00 | 70 | 1013.6 |
| 20260502200544 | 17 | 210 | 8.0 | 22.5 | 0.00 | 0.00 | 0.00 | 70 | 1013.7 |
| 20260502200104 | 17 | 198 | 4.8 | 22.5 | 0.00 | 0.00 | 0.00 | 71 | 1013.7 |
| 20260502195546 | 16 | 222 | 9.7 | 27.4 | 0.00 | 0.00 | 0.00 | 73 | 1013.7 |
| 20260502195046 | 16 | 225 | 8.0 | 27.4 | 0.00 | 0.00 | 0.00 | 74 | 1013.8 |
| 20260502194555 | 16 | 224 | 8.0 | 20.9 | 0.00 | 0.00 | 0.00 | 74 | 1013.7 |
| 20260502194044 | 16 | 245 | 4.8 | 27.4 | 0.00 | 0.00 | 0.00 | 74 | 1013.7 |
| 20260502193547 | 16 | 257 | 9.7 | 27.4 | 0.00 | 0.00 | 0.00 | 74 | 1013.7 |
| 20260502193051 | 16 | 246 | 9.7 | 27.4 | 0.00 | 0.00 | 0.00 | 75 | 1013.8 |
| 20260502192550 | 16 | 139 | 8.0 | 22.5 | 0.00 | 0.00 | 0.00 | 76 | 1013.7 |
| 20260502192047 | 15 | 224 | 9.7 | 22.5 | 0.00 | 0.00 | 0.00 | 76 | 1013.9 |
| 20260502191552 | 15 | 134 | 8.0 | 24.1 | 0.00 | 0.00 | 0.00 | 77 | 1013.7 |
| 20260502191044 | 15 | 295 | 9.7 | 30.6 | 0.00 | 0.00 | 0.00 | 76 | 1013.8 |
| 20260502190544 | 15 | 243 | 8.0 | 30.6 | 0.00 | 0.00 | 0.00 | 77 | 1014.0 |
| 20260502190101 | 15 | 157 | 4.8 | 20.9 | 0.00 | 0.00 | 0.00 | 78 | 1014.1 |
| 20260502185543 | 15 | 184 | 8.0 | 20.9 | 0.00 | 0.00 | 0.00 | 77 | 1014.0 |
| 20260502185047 | 15 | 230 | 6.4 | 16.1 | 0.00 | 0.00 | 0.00 | 78 | 1014.0 |
| 20260502184558 | 15 | 211 | 6.4 | 22.5 | 0.00 | 0.00 | 0.00 | 77 | 1013.8 |
| 20260502184047 | 15 | 254 | 8.0 | 22.5 | 0.00 | 0.00 | 0.00 | 77 | 1013.8 |
| 20260502183547 | 16 | 165 | 6.4 | 20.9 | 0.00 | 0.00 | 0.00 | 76 | 1013.8 |
| 20260502183056 | 16 | 226 | 8.0 | 20.9 | 0.00 | 0.00 | 0.00 | 76 | 1013.8 |
| 20260502182548 | 16 | 97 | 8.0 | 19.3 | 0.00 | 0.00 | 0.00 | 75 | 1013.7 |
| 20260502182047 | 16 | 185 | 4.8 | 16.1 | 0.00 | 0.00 | 0.00 | 77 | 1013.8 |
| 20260502181556 | 16 | 221 | 4.8 | 14.5 | 0.00 | 0.00 | 0.00 | 75 | 1013.7 |
| 20260502181047 | 16 | 165 | 4.8 | 24.1 | 0.00 | 0.00 | 0.00 | 75 | 1013.7 |
| 20260502180547 | 16 | 143 | 8.0 | 24.1 | 0.00 | 0.00 | 0.00 | 76 | 1013.7 |
| 20260502180122 | 15 | 238 | 4.8 | 20.9 | 0.00 | 0.00 | 0.00 | 77 | 1013.7 |